St. James, MN

12:16 AM CDT on May 22, 2018 (GMT -0500)
Saint James Municipal

Weather History for KJYG - October, 2013

Change the Weather History Date:

Sunday, October 20, 2013

  Actual Average Record
Temperature  
Mean Temperature 42 °F -  
Max Temperature 55 °F 58 °F 82 °F (1978)
Min Temperature 30 °F 35 °F 21 °F (1960)
Degree Days  
Heating Degree Days 22    
Moisture  
Dew Point 34 °F    
Average Humidity 77    
Maximum Humidity 87    
Minimum Humidity 54    
Precipitation  
Precipitation 0.00 in - - ()
Sea Level Pressure  
Sea Level Pressure 29.75 in    
Wind  
Wind Speed 10 mph (SW)    
Max Wind Speed 25 mph    
Max Gust Speed 37 mph    
Visibility 10 miles    
Events Rain    
Averages and records for this station are not official NWS values.
T = Trace of Precipitation, MM = Missing Value Source: NWS Daily Summary

Daily Weather History Graph

Daily Weather History Graph

Search for Another Location

Airport or City:

Astronomy

Oct. 20, 2013 Rise Set
Actual Time 7:39 AM CDT 6:25 PM CDT
Civil Twilight 7:10 AM CDT 6:55 PM CDT
Nautical Twilight 6:36 AM CDT 7:28 PM CDT
Astronomical Twilight 6:03 AM CDT 8:01 PM CDT
Moon 7:30 PM CDT (10/20) 9:21 AM CDT (10/20)
Length of Visible Light 11h 44m
Length of Day
10h 46m
Full, 97% of the Moon is Illuminated
Oct 20
Full
Oct 26
Last Quarter
Nov 3
New
Nov 9
First Quarter
Nov 17
Full

Hourly Weather History & Observations

Time (CDT) Temp. Windchill Dew Point Humidity Pressure Visibility Wind Dir Wind Speed Gust Speed Precip Events Conditions
12:15 AM 30.2 °F 24.3 °F 26.6 °F 86% 29.81 in 10.0 mi South 5.8 mph - N/A   Clear
12:35 AM 32.0 °F 26.4 °F 26.6 °F 80% 29.81 in 10.0 mi South 5.8 mph - N/A   Clear
12:55 AM 32.0 °F 26.4 °F 28.4 °F 87% 29.81 in 10.0 mi South 5.8 mph - N/A   Clear
1:14 AM 32.0 °F 26.4 °F 28.4 °F 87% 29.80 in 10.0 mi South 5.8 mph - N/A   Scattered Clouds
1:35 AM 33.8 °F 30.8 °F 28.4 °F 81% 29.80 in 10.0 mi South 3.5 mph - N/A   Mostly Cloudy
1:54 AM 33.8 °F 28.6 °F 28.4 °F 81% 29.80 in 10.0 mi South 5.8 mph - N/A   Overcast
2:15 AM 33.8 °F 29.6 °F 28.4 °F 81% 29.79 in 10.0 mi SSE 4.6 mph - N/A   Overcast
2:35 AM 35.6 °F 31.7 °F 28.4 °F 75% 29.78 in 10.0 mi SSE 4.6 mph - N/A   Overcast
2:55 AM 35.6 °F 30.7 °F 28.4 °F 75% 29.78 in 10.0 mi South 5.8 mph - N/A   Overcast
3:15 AM 35.6 °F 32.8 °F 30.2 °F 81% 29.78 in 5.0 mi South 3.5 mph - N/A Rain Light Rain
3:35 AM 35.6 °F - 32.0 °F 87% 29.78 in 10.0 mi Calm Calm - N/A Rain Light Rain
3:55 AM 35.6 °F 31.7 °F 30.2 °F 81% 29.77 in 10.0 mi SSE 4.6 mph - N/A Rain Light Rain
4:15 AM 35.6 °F 32.8 °F 30.2 °F 81% 29.75 in 10.0 mi SE 3.5 mph - N/A   Light Drizzle
4:35 AM 35.6 °F 31.7 °F 30.2 °F 81% 29.75 in 10.0 mi ESE 4.6 mph - N/A   Overcast
4:55 AM 35.6 °F 32.8 °F 30.2 °F 81% 29.74 in 10.0 mi SE 3.5 mph - N/A   Overcast
5:15 AM 35.6 °F 31.7 °F 32.0 °F 87% 29.73 in 10.0 mi ESE 4.6 mph - N/A   Overcast
5:35 AM 35.6 °F 29.2 °F 32.0 °F 87% 29.72 in 10.0 mi SE 8.1 mph - N/A   Overcast
5:55 AM 37.4 °F 30.8 °F 30.2 °F 75% 29.71 in 10.0 mi SE 9.2 mph - N/A   Overcast
6:15 AM 37.4 °F 30.8 °F 30.2 °F 75% 29.71 in 10.0 mi SE 9.2 mph - N/A   Overcast
6:35 AM 37.4 °F 31.4 °F 30.2 °F 75% 29.70 in 10.0 mi SE 8.1 mph - N/A   Overcast
6:55 AM 37.4 °F 31.4 °F 30.2 °F 75% 29.69 in 10.0 mi SE 8.1 mph - N/A   Overcast
7:15 AM 37.4 °F 30.3 °F 30.2 °F 75% 29.67 in 10.0 mi SE 10.4 mph - N/A   Overcast
7:34 AM 37.4 °F 30.3 °F 30.2 °F 75% 29.67 in 10.0 mi SE 10.4 mph - N/A   Light Drizzle
7:55 AM 37.4 °F 30.8 °F 30.2 °F 75% 29.68 in 10.0 mi SE 9.2 mph - N/A   Overcast
8:15 AM 37.4 °F 32.1 °F 30.2 °F 75% 29.68 in 10.0 mi SSE 6.9 mph - N/A Rain Light Rain
8:35 AM 37.4 °F 32.8 °F 32.0 °F 81% 29.69 in 10.0 mi SE 5.8 mph - N/A Rain Rain
8:55 AM 39.2 °F 35.9 °F 32.0 °F 75% 29.68 in 10.0 mi SSE 4.6 mph - N/A Rain Light Rain
9:14 AM 39.2 °F 32.0 °F 32.0 °F 75% 29.67 in 10.0 mi SE 11.5 mph 17.3 mph N/A   Light Drizzle
9:35 AM 39.2 °F 32.5 °F 32.0 °F 75% 29.65 in 10.0 mi SE 10.4 mph - N/A   Overcast
9:55 AM 39.2 °F 33.0 °F 33.8 °F 81% 29.67 in 10.0 mi SSE 9.2 mph - N/A   Mostly Cloudy
10:14 AM 39.2 °F 33.0 °F 33.8 °F 81% 29.67 in 10.0 mi South 9.2 mph - N/A Rain Light Rain
10:35 AM 42.8 °F 35.8 °F 33.8 °F 70% 29.66 in 10.0 mi SSE 13.8 mph 17.3 mph N/A   Scattered Clouds
10:55 AM 44.6 °F 38.8 °F 35.6 °F 71% 29.65 in 10.0 mi South 11.5 mph - N/A   Clear
11:15 AM 46.4 °F 42.4 °F 35.6 °F 66% 29.65 in 10.0 mi South 8.1 mph - N/A   Clear
11:35 AM 48.2 °F - 37.4 °F 66% 29.64 in 10.0 mi SSW 8.1 mph - N/A   Clear
11:55 AM 51.8 °F - 39.2 °F 62% 29.63 in 10.0 mi SW 12.7 mph 18.4 mph N/A   Clear
12:15 PM 53.6 °F - 39.2 °F 58% 29.63 in 10.0 mi WSW 16.1 mph - N/A   Clear
12:34 PM 55.4 °F - 39.2 °F 54% 29.63 in 10.0 mi WSW 18.4 mph 29.9 mph N/A   Scattered Clouds
12:55 PM 55.4 °F - 41.0 °F 58% 29.63 in 10.0 mi West 21.9 mph 27.6 mph N/A   Overcast
1:15 PM 53.6 °F - 39.2 °F 58% 29.63 in 10.0 mi West 21.9 mph 26.5 mph N/A   Overcast
1:34 PM 53.6 °F - 41.0 °F 62% 29.64 in 10.0 mi West 24.2 mph 28.8 mph N/A   Overcast
1:55 PM 53.6 °F - 39.2 °F 58% 29.64 in 10.0 mi West 24.2 mph 31.1 mph N/A   Overcast
2:15 PM 51.8 °F - 39.2 °F 62% 29.64 in 10.0 mi West 23.0 mph 31.1 mph N/A   Overcast
2:34 PM 51.8 °F - 41.0 °F 67% 29.65 in 10.0 mi West 17.3 mph 32.2 mph N/A   Overcast
2:55 PM 51.8 °F - 41.0 °F 67% 29.65 in 10.0 mi West 24.2 mph 31.1 mph N/A   Overcast
3:15 PM 51.8 °F - 42.8 °F 71% 29.66 in 10.0 mi West 17.3 mph - N/A   Overcast
3:34 PM 48.2 °F - 44.6 °F 87% 29.68 in 5.0 mi West 18.4 mph 33.4 mph N/A   Overcast
3:55 PM 48.2 °F - 42.8 °F 82% 29.68 in 10.0 mi West 20.7 mph 26.5 mph N/A   Overcast
4:15 PM 48.2 °F - 42.8 °F 82% 29.69 in 7.0 mi West 16.1 mph 24.2 mph N/A   Overcast
4:34 PM 46.4 °F 39.2 °F 42.8 °F 87% 29.71 in 5.0 mi WNW 18.4 mph 27.6 mph N/A Rain Light Rain
4:55 PM 46.4 °F 38.3 °F 42.8 °F 87% 29.73 in 3.0 mi West 23.0 mph 29.9 mph N/A   Drizzle
5:15 PM 44.6 °F 35.5 °F 39.2 °F 81% 29.75 in 7.0 mi WNW 25.3 mph 36.8 mph N/A   Overcast
5:35 PM 42.8 °F 34.3 °F 39.2 °F 87% 29.76 in 10.0 mi WNW 19.6 mph 27.6 mph N/A   Overcast
5:55 PM 42.8 °F 34.3 °F 39.2 °F 87% 29.78 in 10.0 mi WNW 19.6 mph 25.3 mph N/A   Overcast
6:14 PM 42.8 °F 34.8 °F 39.2 °F 87% 29.79 in 5.0 mi WNW 17.3 mph 26.5 mph N/A   Overcast
6:35 PM 42.8 °F 36.2 °F 37.4 °F 81% 29.81 in 10.0 mi WNW 12.7 mph 25.3 mph N/A   Overcast
6:55 PM 41.0 °F 32.5 °F 37.4 °F 87% 29.83 in 10.0 mi WNW 17.3 mph 23.0 mph N/A   Overcast
7:15 PM 41.0 °F 32.2 °F 35.6 °F 81% 29.84 in 10.0 mi NW 18.4 mph 27.6 mph N/A   Overcast
7:35 PM 41.0 °F 31.6 °F 33.8 °F 76% 29.86 in 10.0 mi NW 20.7 mph 26.5 mph N/A   Overcast
7:55 PM 39.2 °F 29.3 °F 33.8 °F 81% 29.87 in 10.0 mi NW 20.7 mph 28.8 mph N/A   Overcast
8:15 PM 39.2 °F 30.2 °F 33.8 °F 81% 29.88 in 10.0 mi NW 17.3 mph 23.0 mph N/A   Overcast
8:35 PM 37.4 °F 30.3 °F 32.0 °F 81% 29.89 in 10.0 mi NW 10.4 mph - N/A   Scattered Clouds
8:55 PM 37.4 °F 32.1 °F 32.0 °F 81% 29.90 in 10.0 mi WNW 6.9 mph - N/A   Clear
9:15 PM 35.6 °F 30.7 °F 32.0 °F 87% 29.91 in 10.0 mi WNW 5.8 mph - N/A   Scattered Clouds
9:34 PM 37.4 °F 32.1 °F 33.8 °F 87% 29.91 in 10.0 mi WNW 6.9 mph - N/A   Mostly Cloudy
9:55 PM 37.4 °F 30.8 °F 33.8 °F 87% 29.92 in 10.0 mi WNW 9.2 mph - N/A   Scattered Clouds
10:15 PM 37.4 °F 30.3 °F 33.8 °F 87% 29.92 in 10.0 mi West 10.4 mph - N/A   Scattered Clouds
10:34 PM 39.2 °F 32.0 °F 35.6 °F 87% 29.93 in 10.0 mi WNW 11.5 mph - N/A   Mostly Cloudy
10:55 PM 39.2 °F 31.2 °F 35.6 °F 87% 29.93 in 10.0 mi WNW 13.8 mph 19.6 mph N/A   Overcast
11:15 PM 39.2 °F 29.6 °F 32.0 °F 75% 29.94 in 10.0 mi NW 19.6 mph 25.3 mph N/A   Overcast
11:34 PM 37.4 °F 28.9 °F 30.2 °F 75% 29.95 in 10.0 mi WNW 13.8 mph 25.3 mph N/A   Overcast
11:55 PM 37.4 °F 29.3 °F 30.2 °F 75% 29.96 in 10.0 mi WNW 12.7 mph - N/A   Overcast